When you browse on this site, cookies collect data to enhance your experience and personalize the content and advertising you see.
Visit our Privacy Policy to learn more. By continuing to use the site, you agree to this use of cookies and data.
  • In Sweden
  • List of Countries
  • For 7 days
  • Water Temperature
  • Weather Map
  • Weather Widgets
  • user-avatar
    Login

    Hourly Weather Ahafiivka

    Today, 7 June, Sunday

    Time Temperature Precipitation Wind Pressure Humidity
    00:00 +16°C° 0 mm 2 mps 746 mmHg 84%
    01:00 +16°C° 0 mm 2 mps 747 mmHg 85%
    02:00 +15°C° 0 mm 2 mps 747 mmHg 87%
    03:00 +15°C° 0 mm 2 mps 747 mmHg 87%
    04:00 +15°C° 0 mm 2 mps 747 mmHg 88%
    05:00 +15°C° 0 mm 2 mps 747 mmHg 88%
    06:00 +17°C° 0 mm 2 mps 747 mmHg 82%
    07:00 +19°C° 0 mm 3 mps 747 mmHg 77%
    08:00 +21°C° 0 mm 3 mps 747 mmHg 71%
    09:00 +22°C° 0 mm 3 mps 747 mmHg 64%
    10:00 +25°C° 0 mm 3 mps 747 mmHg 57%
    11:00 +27°C° 0 mm 4 mps 747 mmHg 50%
    12:00 +28°C° 0 mm 3 mps 747 mmHg 47%
    13:00 +29°C° 0 mm 3 mps 747 mmHg 44%
    14:00 +29°C° 0 mm 3 mps 747 mmHg 41%
    15:00 +29°C° 0 mm 3 mps 747 mmHg 43%
    16:00 +29°C° 0 mm 3 mps 746 mmHg 45%
    17:00 +29°C° 0 mm 3 mps 746 mmHg 47%
    18:00 +27°C° 0 mm 3 mps 746 mmHg 53%
    19:00 +25°C° 0 mm 3 mps 746 mmHg 59%
    20:00 +22°C° 0 mm 3 mps 746 mmHg 65%
    21:00 +21°C° 0 mm 3 mps 746 mmHg 67%
    22:00 +20°C° 0 mm 3 mps 746 mmHg 68%
    23:00 +19°C° 0 mm 3 mps 746 mmHg 70%

    Tomorrow, 8 June, Monday

    Time Temperature Precipitation Wind Pressure Humidity
    00:00 +19°C° 0 mm 3 mps 746 mmHg 72%
    01:00 +18°C° 0 mm 2 mps 746 mmHg 74%
    02:00 +18°C° 0 mm 2 mps 746 mmHg 76%
    03:00 +18°C° 0 mm 2 mps 746 mmHg 79%
    04:00 +17°C° 0 mm 3 mps 745 mmHg 82%
    05:00 +17°C° 0 mm 3 mps 745 mmHg 85%
    06:00 +19°C° 0 mm 3 mps 745 mmHg 81%
    07:00 +21°C° 0 mm 4 mps 745 mmHg 77%
    08:00 +23°C° 0 mm 5 mps 745 mmHg 73%
    09:00 +25°C° 0 mm 5 mps 746 mmHg 68%
    10:00 +27°C° 0 mm 5 mps 746 mmHg 62%
    11:00 +28°C° 0 mm 5 mps 746 mmHg 56%
    12:00 +29°C° 0 mm 5 mps 745 mmHg 53%
    13:00 +30°C° 0 mm 5 mps 745 mmHg 49%
    14:00 +30°C° 0 mm 4 mps 745 mmHg 46%
    15:00 +30°C° 0 mm 4 mps 744 mmHg 48%
    16:00 +30°C° 0 mm 4 mps 744 mmHg 49%
    17:00 +30°C° 0 mm 4 mps 744 mmHg 51%
    18:00 +28°C° 0 mm 3 mps 744 mmHg 56%
    19:00 +26°C° 0 mm 3 mps 744 mmHg 60%
    20:00 +24°C° 0 mm 3 mps 744 mmHg 65%
    21:00 +22°C° 0 mm 3 mps 744 mmHg 67%
    22:00 +21°C° 0 mm 3 mps 744 mmHg 69%
    23:00 +20°C° 0 mm 3 mps 744 mmHg 71%

    Day after tomorrow, 9 June, Tuesday

    Time Temperature Precipitation Wind Pressure Humidity
    00:00 +20°C° 0 mm 2 mps 744 mmHg 72%
    01:00 +19°C° 0 mm 2 mps 744 mmHg 74%
    02:00 +18°C° 0 mm 2 mps 744 mmHg 75%
    03:00 +18°C° 0 mm 2 mps 744 mmHg 78%
    04:00 +18°C° 0 mm 2 mps 744 mmHg 80%
    05:00 +18°C° 0 mm 2 mps 744 mmHg 82%
    06:00 +20°C° 0 mm 3 mps 744 mmHg 78%
    07:00 +22°C° 0 mm 3 mps 744 mmHg 74%
    08:00 +24°C° 0 mm 3 mps 745 mmHg 70%
    09:00 +26°C° 0 mm 4 mps 745 mmHg 65%
    10:00 +27°C° 0 mm 4 mps 745 mmHg 59%
    11:00 +29°C° 0 mm 4 mps 745 mmHg 54%
    12:00 +30°C° 0 mm 4 mps 745 mmHg 50%
    13:00 +32°C° 0 mm 4 mps 745 mmHg 46%
    14:00 +31°C° 0 mm 3 mps 744 mmHg 42%
    15:00 +31°C° 0 mm 3 mps 744 mmHg 44%
    16:00 +31°C° 0 mm 3 mps 744 mmHg 45%
    17:00 +31°C° 0 mm 2 mps 744 mmHg 46%
    18:00 +29°C° 0 mm 2 mps 744 mmHg 51%
    19:00 +27°C° 0 mm 1 mps 744 mmHg 56%
    20:00 +25°C° 0 mm 1 mps 744 mmHg 61%
    21:00 +24°C° 0 mm 1 mps 744 mmHg 64%
    22:00 +23°C° 0 mm 1 mps 744 mmHg 67%
    23:00 +23°C° 0 mm 1 mps 745 mmHg 70%

    10 June, Wednesday

    Time Temperature Precipitation Wind Pressure Humidity
    00:00 +22°C° 0 mm 1 mps 744 mmHg 71%
    01:00 +22°C° 0 mm 1 mps 744 mmHg 72%
    02:00 +20°C° 0 mm 2 mps 744 mmHg 73%
    03:00 +20°C° 0 mm 2 mps 744 mmHg 74%
    04:00 +19°C° 0 mm 2 mps 744 mmHg 74%
    05:00 +19°C° 0 mm 2 mps 744 mmHg 75%
    06:00 +21°C° 0 mm 2 mps 744 mmHg 70%
    07:00 +24°C° 0 mm 2 mps 745 mmHg 65%
    08:00 +26°C° 0 mm 2 mps 745 mmHg 59%
    09:00 +27°C° 0 mm 2 mps 745 mmHg 56%
    10:00 +28°C° 0 mm 3 mps 745 mmHg 53%
    11:00 +30°C° 0 mm 3 mps 745 mmHg 50%
    12:00 +30°C° 0 mm 3 mps 745 mmHg 48%
    13:00 +31°C° 0 mm 3 mps 744 mmHg 46%
    14:00 +31°C° 0 mm 3 mps 744 mmHg 44%
    15:00 +33°C° 0 mm 3 mps 744 mmHg 44%
    16:00 +33°C° 0 mm 3 mps 743 mmHg 44%
    17:00 +33°C° 0 mm 3 mps 743 mmHg 45%
    18:00 +30°C° 0 mm 3 mps 743 mmHg 51%
    19:00 +27°C° 0 mm 2 mps 743 mmHg 56%
    20:00 +25°C° 0 mm 2 mps 743 mmHg 62%
    21:00 +24°C° 0 mm 2 mps 743 mmHg 64%
    22:00 +23°C° 0 mm 1 mps 743 mmHg 65%
    23:00 +21°C° 0 mm 0 mps 743 mmHg 67%

    11 June, Thursday

    Time Temperature Precipitation Wind Pressure Humidity
    00:00 +22°C° 0.2 mm 1 mps 743 mmHg 69%
    01:00 +21°C° 0.2 mm 1 mps 743 mmHg 72%
    02:00 +21°C° 0.2 mm 1 mps 743 mmHg 74%
    03:00 +21°C° 0 mm 1 mps 743 mmHg 75%
    04:00 +21°C° 0 mm 1 mps 743 mmHg 76%
    05:00 +21°C° 0 mm 1 mps 743 mmHg 77%
    06:00 +21°C° 0 mm 2 mps 743 mmHg 72%
    07:00 +24°C° 0 mm 3 mps 743 mmHg 68%
    08:00 +26°C° 0 mm 3 mps 743 mmHg 64%
    09:00 +27°C° 0 mm 4 mps 743 mmHg 60%
    10:00 +28°C° 0 mm 4 mps 743 mmHg 56%
    11:00 +30°C° 0 mm 4 mps 743 mmHg 52%
    12:00 +30°C° 0 mm 4 mps 743 mmHg 49%
    13:00 +32°C° 0 mm 4 mps 742 mmHg 47%
    14:00 +33°C° 0 mm 4 mps 742 mmHg 45%
    15:00 +33°C° 0 mm 4 mps 742 mmHg 46%
    16:00 +33°C° 0 mm 4 mps 741 mmHg 47%
    17:00 +33°C° 0 mm 4 mps 741 mmHg 48%
    18:00 +30°C° 0 mm 3 mps 741 mmHg 52%
    19:00 +28°C° 0 mm 3 mps 741 mmHg 56%
    20:00 +26°C° 0 mm 3 mps 741 mmHg 60%
    21:00 +25°C° 0 mm 3 mps 741 mmHg 64%
    22:00 +24°C° 0 mm 3 mps 741 mmHg 68%
    23:00 +22°C° 0 mm 3 mps 741 mmHg 72%

    12 June, Friday

    Time Temperature Precipitation Wind Pressure Humidity
    00:00 +22°C° 0.2 mm 3 mps 740 mmHg 77%
    01:00 +21°C° 0.2 mm 3 mps 740 mmHg 81%
    02:00 +21°C° 0.2 mm 2 mps 740 mmHg 86%
    03:00 +21°C° 0.1 mm 3 mps 740 mmHg 88%
    04:00 +21°C° 0.1 mm 3 mps 740 mmHg 90%
    05:00 +21°C° 0.1 mm 3 mps 740 mmHg 92%
    06:00 +24°C° 0 mm 3 mps 740 mmHg 85%
    07:00 +26°C° 0 mm 3 mps 740 mmHg 77%
    08:00 +27°C° 0 mm 3 mps 740 mmHg 70%
    09:00 +29°C° 0.1 mm 4 mps 740 mmHg 64%
    10:00 +30°C° 0.1 mm 4 mps 740 mmHg 58%
    11:00 +33°C° 0.1 mm 4 mps 740 mmHg 52%
    12:00 +33°C° 0 mm 4 mps 740 mmHg 50%
    13:00 +34°C° 0 mm 4 mps 740 mmHg 48%
    14:00 +34°C° 0 mm 4 mps 739 mmHg 46%
    15:00 +34°C° 0.1 mm 4 mps 739 mmHg 47%
    16:00 +34°C° 0.1 mm 4 mps 739 mmHg 49%
    17:00 +33°C° 0.1 mm 4 mps 739 mmHg 50%
    18:00 +30°C° 0 mm 4 mps 739 mmHg 58%
    19:00 +29°C° 0 mm 4 mps 739 mmHg 67%
    20:00 +27°C° 0 mm 4 mps 739 mmHg 75%
    21:00 +26°C° 0 mm 4 mps 739 mmHg 77%
    22:00 +25°C° 0 mm 4 mps 739 mmHg 78%
    23:00 +24°C° 0 mm 3 mps 739 mmHg 80%
    Show more